[[{"header":{"parameterUnit":"m.s-1","parameterCategory":1,"la1":30.2991,"la2":30.254,"lo1":-89.0895,"lo2":-89.0444,"dx":0.0017,"dy":0.0017,"nx":28,"ny":28,"refTime":"2022-12-03T09:00:00:Z","depth":0,"parameterNumber":2,"parameterNumberName":"U-component_of_WINDS"},"data":[0,0,0,0,0,0,0,0,0,0,0,0,0,0,0,0,0,0,0,0,0,0,0,0,0,0,0,0,0,0,0,0,0,0,0,0,0,0,0,0,0,0,0,0,0,0,0,0,0,0,0,0,0,0,0,0,0,0,-2.1428,-2.1428,0,-2.1371,-2.137,-2.137,-2.1298,-2.1297,-2.1295,-2.1294,-2.1236,-2.1236,-2.1236,0,0,0,0,0,0,0,0,0,0,0,0,0,-2.1476,-2.1475,-2.1428,-2.1427,-2.1427,-2.1371,-2.137,-2.137,-2.1298,-2.1297,-2.1295,-2.1294,-2.1237,-2.1236,-2.1235,0,0,0,0,0,0,0,0,0,0,0,0,0,-2.1441,-2.1475,-2.1428,-2.1384,-2.138,-2.1371,-2.137,-2.1369,-2.1298,-2.1296,-2.1295,-2.1293,-2.1237,-2.1236,-2.1235,-2.1266,0,0,-2.1233,-2.1233,0,0,0,0,0,0,0,0,-2.1443,-2.1439,-2.1391,-2.1387,-2.1382,-2.134,-2.1366,-2.1335,-2.1299,-2.1329,-2.1294,-2.1292,-2.1272,-2.1269,-2.1262,-2.1263,-2.1261,-2.1233,-2.1233,-2.1232,-2.1232,0,0,0,0,0,0,0,-2.1445,-2.1441,-2.1406,-2.1391,-2.1385,-2.1368,-2.1361,-2.136,-2.1311,-2.1326,-2.1321,-2.1315,-2.1269,-2.1262,-2.126,-2.126,-2.1233,-2.1233,-2.1232,-2.1232,-2.1284,-2.1285,0,0,0,0,0,0,-2.1454,-2.1444,-2.1407,-2.1404,-2.1409,-2.1368,-2.136,-2.1355,-2.1311,-2.1303,-2.1317,-2.1312,-2.1265,-2.1261,-2.1257,-2.129,-2.1232,-2.1232,-2.1231,-2.1282,-2.1284,-2.1286,0,0,0,0,0,0,-2.1456,-2.1452,-2.141,-2.1422,-2.1416,-2.1369,-2.1364,-2.1355,-2.1348,-2.1304,-2.1295,-2.1319,-2.1263,-2.1258,-2.1264,-2.1287,-2.1232,-2.1231,-2.128,-2.1282,-2.1285,-2.1356,0,0,0,0,0,0,-2.1457,-2.1453,-2.1463,-2.1423,-2.1415,-2.1418,-2.1365,-2.1355,-2.1347,-2.134,-2.1303,-2.1295,-2.1261,-2.1266,-2.1264,-2.1285,-2.123,-2.1277,-2.1281,-2.1284,-2.1352,-2.1361,-2.1369,0,0,0,0,0,-2.1459,-2.1486,-2.1464,-2.146,-2.1428,-2.1419,-2.1414,-2.1375,-2.1349,-2.136,-2.1331,-2.1296,-2.1285,-2.1267,-2.1264,-2.1286,-2.1276,-2.128,-2.1284,-2.1348,-2.1359,-2.1369,0,0,0,0,0,0,-2.153,-2.148,-2.1455,-2.147,-2.1449,-2.1407,-2.1419,-2.1388,-2.1375,-2.1369,-2.132,-2.1313,-2.1325,-2.1306,-2.1286,-2.1313,-2.1275,-2.1279,-2.1325,-2.1335,-2.1344,-2.1348,-2.123,0,0,0,0,0,-2.1548,-2.1544,-2.15,-2.1517,-2.1508,-2.1466,-2.146,-2.1432,-2.1408,-2.1399,-2.1371,-2.1351,-2.1342,-2.1338,-2.1328,-2.1349,-2.134,-2.1362,-2.1371,-2.1378,-2.1382,-2.1392,-2.1401,-2.1299,-2.1299,-2.1299,0,0,-2.1583,-2.1555,-2.1556,-2.1531,-2.1512,-2.151,-2.1459,-2.1459,-2.1457,-2.1399,-2.1403,-2.1382,-2.1356,-2.1369,-2.1374,-2.1354,-2.1408,-2.1383,-2.139,-2.1389,-2.1397,-2.1407,-2.1415,-2.1302,-2.1301,-2.1301,0,0,-2.1648,-2.1626,-2.1638,-2.162,-2.1591,-2.1562,-2.1566,-2.1528,-2.1512,-2.1515,-2.1472,-2.1469,-2.1455,-2.1438,-2.1428,-2.1487,-2.1454,-2.1485,-2.153,-2.154,-2.1549,-2.1555,-2.1576,-2.1585,-2.1489,-2.1489,-2.1489,0,-2.1696,-2.1691,-2.1648,-2.1651,-2.1641,-2.1589,-2.16,-2.1585,-2.1555,-2.1549,-2.1527,-2.151,-2.1488,-2.1497,-2.1512,-2.1505,-2.1507,-2.1489,-2.1551,-2.1557,-2.1563,-2.1583,-2.1591,-2.1493,-2.1492,-2.1492,-2.1491,0,-2.1751,-2.1749,-2.1762,-2.1734,-2.1726,-2.1733,-2.1692,-2.1688,-2.1661,-2.1635,-2.1639,-2.1611,-2.1595,-2.1595,-2.1568,-2.16,-2.1589,-2.156,-2.1521,-2.1578,-2.1595,-2.1602,-2.1498,-2.1497,-2.1496,-2.1495,0,0,-2.1858,-2.1807,-2.1812,-2.1799,-2.1764,-2.1761,-2.1767,-2.175,-2.1749,-2.173,-2.1733,-2.1724,-2.1696,-2.1685,-2.1655,-2.1664,-2.1713,-2.1634,-2.1633,-2.165,-2.1747,-2.177,-2.1779,-2.1691,-2.1692,-2.1693,-2.175,0,-2.1916,-2.1921,-2.1883,-2.1899,-2.1897,-2.1847,-2.1852,-2.1831,-2.1807,-2.1802,-2.1775,-2.1769,-2.1734,-2.1726,-2.1733,-2.1706,-2.1732,-2.1701,-2.1694,-2.1694,-2.1702,-2.1788,-2.1811,-2.1866,-2.1756,-2.1757,-2.1758,0,-2.1984,-2.1968,-2.1984,-2.1949,-2.1946,-2.1951,-2.1933,-2.1929,-2.1904,-2.1886,-2.1874,-2.184,-2.1843,-2.1806,-2.181,-2.179,-2.1785,-2.1771,-2.1772,-2.177,-2.173,-2.1788,-2.1882,-2.1891,-2.1769,-2.1768,-2.1767,0,-2.206,-2.2044,-2.2051,-2.2041,-2.2,-2.2005,-2.1988,-2.1962,-2.1955,-2.1939,-2.1934,-2.192,-2.1912,-2.1902,-2.1865,-2.1842,-2.1873,-2.1833,-2.1858,-2.186,-2.1867,-2.1867,-2.1962,-2.1864,-2.1864,-2.1864,-2.1864,0,-2.2128,-2.214,-2.2085,-2.209,-2.2101,-2.2058,-2.2071,-2.2049,-2.2026,-2.2026,-2.1983,-2.1983,-2.1935,-2.1931,-2.1902,-2.191,-2.1906,-2.1892,-2.1884,-2.1896,-2.1898,-2.1892,-2.1887,-2.1866,-2.1866,-2.1865,-2.1865,0,-2.2216,-2.2179,-2.2184,-2.2145,-2.2135,-2.2146,-2.2112,-2.2115,-2.2088,-2.2089,-2.2086,-2.2045,-2.2037,-2.2,-2.1984,-2.1965,-2.1982,-2.1967,-2.1991,-2.1985,-2.2013,-2.2011,-2.2107,-2.2117,-2.2014,-2.2015,-2.2015,0,-2.2261,-2.2269,-2.2231,-2.2228,-2.2213,-2.2208,-2.22,-2.2158,-2.2152,-2.2125,-2.2131,-2.212,-2.2109,-2.21,-2.2069,-2.2056,-2.204,-2.2075,-2.2038,-2.205,-2.2041,-2.2041,-2.2041,-2.2083,-2.2084,-2.2085,-2.2086,0,-2.2347,-2.2328,-2.2319,-2.2304,-2.2296,-2.2282,-2.2266,-2.2266,-2.2219,-2.2214,-2.2206,-2.2198,-2.2181,-2.2171,-2.2153,-2.2136,-2.2104,-2.2098,-2.2103,-2.2115,-2.2128,-2.2121,-2.2012,-2.2096,-2.2095,-2.2094,-2.2093,-2.2093,-2.2414,-2.2419,-2.2393,-2.2385,-2.2368,-2.2353,-2.2354,-2.2328,-2.232,-2.2303,-2.2279,-2.2274,-2.225,-2.2223,-2.2209,-2.2205,-2.2186,-2.2193,-2.2195,-2.2198,-2.2204,-2.2129,-2.2201,-2.2201,-2.2201,-2.22,-2.22,0,-2.2498,-2.2478,-2.2471,-2.2449,-2.2443,-2.2412,-2.2393,-2.2389,-2.2386,-2.2366,-2.2356,-2.2347,-2.2337,-2.2305,-2.2292,-2.2295,-2.228,-2.2293,-2.2292,-2.2289,-2.2221,-2.2218,-2.2306,-2.2306,-2.2306,-2.2306,-2.2306,-2.2306,-2.254,-2.2547,-2.2525,-2.2523,-2.2504,-2.2499,-2.249,-2.2477,-2.2461,-2.2453,-2.2444,-2.2424,-2.2399,-2.2384,-2.2374,-2.2365,-2.2362,-2.2381,-2.2367,-2.2304,-2.2294,-2.2284,-2.2281,-2.238,-2.238,-2.2435,-2.2435,-2.2436]},{"header":{"parameterUnit":"m.s-1","parameterCategory":1,"la1":30.2991,"la2":30.254,"lo1":-89.0895,"lo2":-89.0444,"dx":0.0017,"dy":0.0017,"nx":28,"ny":28,"refTime":"2022-12-03T09:00:00:Z","depth":0,"parameterNumber":3,"parameterNumberName":"V-component_of_WINDS"},"data":[0,0,0,0,0,0,0,0,0,0,0,0,0,0,0,0,0,0,0,0,0,0,0,0,0,0,0,0,0,0,0,0,0,0,0,0,0,0,0,0,0,0,0,0,0,0,0,0,0,0,0,0,0,0,0,0,0,0,2.9188,2.9188,0,2.9197,2.9197,2.9197,2.9165,2.9164,2.9163,2.9162,2.917,2.9171,2.9173,0,0,0,0,0,0,0,0,0,0,0,0,0,2.9146,2.9147,2.9188,2.9188,2.9188,2.9197,2.9197,2.9197,2.9165,2.9164,2.9162,2.9161,2.917,2.9171,2.9173,0,0,0,0,0,0,0,0,0,0,0,0,0,2.916,2.9147,2.9188,2.9173,2.9172,2.9197,2.9197,2.9197,2.9165,2.9164,2.9162,2.9161,2.917,2.9171,2.9173,2.9212,0,0,2.9178,2.9179,0,0,0,0,0,0,0,0,2.9159,2.9162,2.9175,2.9174,2.9173,2.9178,2.9185,2.9202,2.9165,2.9168,2.9162,2.916,2.9174,2.9175,2.918,2.9212,2.9213,2.9178,2.9179,2.918,2.918,0,0,0,0,0,0,0,2.9158,2.9161,2.9191,2.9176,2.9174,2.9167,2.9167,2.9188,2.9179,2.9167,2.9165,2.9167,2.9173,2.9179,2.918,2.9213,2.9178,2.918,2.9181,2.9181,2.928,2.9281,0,0,0,0,0,0,2.9159,2.9161,2.9191,2.9192,2.9163,2.9169,2.9169,2.9178,2.9179,2.9177,2.9168,2.9165,2.9176,2.9178,2.918,2.9228,2.918,2.9181,2.9182,2.9278,2.928,2.9282,0,0,0,0,0,0,2.9158,2.9162,2.9191,2.9176,2.9179,2.9171,2.9181,2.9179,2.9184,2.9179,2.9177,2.9175,2.9175,2.9178,2.9205,2.9227,2.9182,2.9184,2.9276,2.9279,2.9281,2.9322,0,0,0,0,0,0,2.9157,2.9162,2.9176,2.9176,2.918,2.9215,2.9182,2.918,2.9187,2.9184,2.9185,2.9184,2.9174,2.9202,2.9206,2.9229,2.9185,2.9274,2.9277,2.928,2.9319,2.9325,2.9331,0,0,0,0,0,2.9156,2.9187,2.9177,2.9181,2.9197,2.9216,2.9218,2.9207,2.9189,2.9204,2.9201,2.9184,2.9224,2.9205,2.921,2.9233,2.9273,2.9276,2.928,2.9316,2.9324,2.9331,0,0,0,0,0,0,2.919,2.9187,2.9176,2.9208,2.9213,2.9211,2.9229,2.9216,2.9226,2.9222,2.9207,2.9208,2.9238,2.9238,2.9217,2.9272,2.9245,2.925,2.9271,2.9279,2.9285,2.9285,2.9186,0,0,0,0,0,2.9201,2.9217,2.9213,2.9242,2.9245,2.9237,2.9244,2.9235,2.924,2.9242,2.924,2.9246,2.926,2.9269,2.9281,2.9318,2.9319,2.9336,2.9343,2.9348,2.9353,2.9374,2.9382,2.9294,2.9294,2.9294,0,0,2.9224,2.9225,2.9235,2.9249,2.9251,2.9269,2.9239,2.9257,2.927,2.9244,2.9271,2.927,2.9275,2.9307,2.9322,2.9308,2.9377,2.9353,2.9357,2.9359,2.9379,2.9387,2.9395,2.9296,2.9296,2.9295,0,0,2.9276,2.9277,2.9302,2.9306,2.931,2.9305,2.9311,2.9312,2.9311,2.9337,2.9318,2.9334,2.9357,2.9362,2.9368,2.9424,2.9409,2.9428,2.9462,2.9483,2.949,2.9496,2.9518,2.9526,2.9432,2.9432,2.9432,0,2.9304,2.9329,2.9316,2.9337,2.9345,2.9322,2.9348,2.9352,2.9361,2.9367,2.9352,2.9383,2.9384,2.9419,2.9433,2.9437,2.9445,2.9428,2.949,2.9496,2.9502,2.9522,2.953,2.9435,2.9434,2.9434,2.9434,0,2.9365,2.9383,2.9402,2.9412,2.9421,2.9445,2.9436,2.9447,2.9438,2.9434,2.9462,2.9463,2.9477,2.9484,2.9474,2.9518,2.9509,2.9492,2.9466,2.9513,2.9532,2.9539,2.9438,2.9437,2.9437,2.9436,0,0,2.9438,2.9441,2.9449,2.9454,2.9459,2.9472,2.9495,2.9509,2.9519,2.9526,2.9546,2.9568,2.9553,2.9559,2.955,2.9568,2.9615,2.9549,2.9549,2.9563,2.9665,2.9679,2.9689,2.9605,2.9606,2.9607,2.9665,0,2.949,2.9529,2.9519,2.9559,2.9576,2.9556,2.9577,2.9582,2.958,2.9595,2.9592,2.9608,2.9586,2.959,2.9607,2.9606,2.9636,2.9601,2.9625,2.9625,2.9625,2.9698,2.9713,2.9767,2.9673,2.9674,2.9675,0,2.9556,2.9567,2.9608,2.9612,2.9619,2.9637,2.965,2.9664,2.967,2.9667,2.9676,2.9663,2.9687,2.966,2.9693,2.967,2.9679,2.968,2.9681,2.9684,2.9654,2.9705,2.9784,2.9793,2.9686,2.9685,2.9684,0,2.9607,2.9632,2.9661,2.9665,2.967,2.9684,2.9686,2.9691,2.97,2.9711,2.9718,2.9731,2.9739,2.975,2.9742,2.9723,2.9778,2.9749,2.9777,2.9778,2.979,2.979,2.9874,2.9794,2.9794,2.9793,2.9793,0,2.9667,2.9694,2.9684,2.9702,2.9732,2.972,2.975,2.975,2.9755,2.9774,2.9756,2.9774,2.9762,2.9779,2.9772,2.9802,2.9805,2.9805,2.9803,2.9807,2.9807,2.9814,2.981,2.9796,2.9795,2.9795,2.9794,0,2.973,2.9724,2.9754,2.9757,2.9758,2.978,2.9782,2.9799,2.9796,2.982,2.9825,2.982,2.9839,2.9832,2.9852,2.9848,2.9887,2.9879,2.9885,2.9884,2.9913,2.9911,3.0005,3.0018,2.9928,2.9929,2.9929,0,2.9769,2.979,2.9795,2.9806,2.981,2.9828,2.9838,2.9828,2.9839,2.9849,2.9865,2.9883,2.9897,2.9928,2.9927,2.9942,2.9936,2.9968,2.9938,2.9943,2.9939,2.9939,2.9942,2.9975,2.9976,2.9977,2.9977,0,2.9841,2.9837,2.9852,2.9867,2.988,2.9891,2.9901,2.9911,2.9901,2.9915,2.9935,2.9945,2.9967,2.9985,3.0,3.0002,2.9989,2.9987,2.9994,2.9999,3.0003,3.0003,2.9903,2.9985,2.9984,2.9983,2.9983,2.9983,2.9894,2.9912,2.9919,2.9937,2.9944,2.9954,2.997,2.997,2.9986,3.0003,2.9996,3.0019,3.0027,3.0045,3.005,3.0069,3.0056,3.0067,3.007,3.0073,3.0078,2.9999,3.0071,3.0071,3.0071,3.007,3.007,0,2.9966,2.997,2.9987,3.0002,3.0016,3.0002,3.0013,3.0026,3.0047,3.0055,3.0069,3.0093,3.0111,3.0112,3.0129,3.0144,3.0138,3.0149,3.0148,3.015,3.0087,3.008,3.0153,3.0153,3.0153,3.0153,3.0153,3.0153,3.0006,3.0036,3.0034,3.0068,3.0072,3.0095,3.0102,3.0112,3.0119,3.0146,3.0161,3.0162,3.0167,3.0185,3.0202,3.0201,3.0209,3.0223,3.0221,3.0162,3.0154,3.0146,3.0139,3.0224,3.0224,3.0282,3.0282,3.0283]}]]